User: anonymous
Location: Roanoke
(37.2710°N, 79.9420°W)
Time: 03:41:17
(UTC-04:00)
Language:

FENGYUN 3A - Orbit

View from above orbital plane
View from above orbital plane
View from above satellite
View from above satellite

Ground track
Ground track

The orbit data is extracted from the following two-line orbital elements,

1 32958U 08026A   14112.72305444  .00000145  00000-0  88931-4 0  9174
2 32958 098.5600 173.4157 0010057 021.7003 338.4598 14.19438937305974
Epoch (UTC): 22 April 2014 17:21:11
Eccentricity: 0.0010057
inclination: 98.5600°
perigee height: 820 km
apogee height: 834 km
right ascension of ascending node: 173.4157°
argument of perigee: 21.7003°
revolutions per day: 14.19438937
mean anomaly at epoch: 338.4598°
orbit number at epoch: 30597

The dashed part of the orbit path shows where the satellite is in the earth's shadow,  

DLR